Weather History for Dayton, OH

Change the Weather History Date:

Friday, October 11, 2013

  Actual Average Record
Temperature  
Mean Temperature 64 °F 55 °F  
Max Temperature 80 °F 66 °F 87 °F (1928)
Min Temperature 47 °F 45 °F 26 °F (1906)
Degree Days  
Heating Degree Days 1 10  
Month to date heating degree days 34 95  
Since 1 July heating degree days 101 185  
Cooling Degree Days 0 0  
Month to date cooling degree days 35 10  
Year to date cooling degree days 1062 891  
Growing Degree Days 13 (Base 50)    
Moisture  
Dew Point 47 °F    
Average Humidity 62    
Maximum Humidity 93    
Minimum Humidity 30    
Precipitation  
Precipitation 0.00 in 0.10 in 0.92 in (1919)
Month to date precipitation 3.22 1.08  
Year to date precipitation 27.83 32.69  
Snow  
Snow 0.00 in 0.00 in - ()
Month to date snowfall 0.0 0.1  
Since 1 July snowfall 0.0 0.1  
Since 1 September snowfall 0.0 0.1  
Snow Depth 0.00 in    
Sea Level Pressure  
Sea Level Pressure 30.08 in    
Wind  
Wind Speed 2 mph (ENE)    
Max Wind Speed 7 mph    
Max Gust Speed 9 mph    
Visibility 10 miles    
Events      
T = Trace of Precipitation, MM = Missing Value Source: NWS Daily Summary

Daily Weather History Graph

Daily Weather History Graph

Search for Another Location

Airport:

Trip Planner

Search our weather history database for the weather conditions in past years. The results will help you decide how hot, cold, wet, or windy it might be!

Date:

Astronomy

Oct. 11, 2013 Rise Set
Actual Time 7:43 AM EDT 7:03 PM EDT
Civil Twilight 7:16 AM EDT 7:30 PM EDT
Nautical Twilight 6:44 AM EDT 8:01 PM EDT
Astronomical Twilight 6:13 AM EDT 8:32 PM EDT
Moon 2:24 PM EDT (10/11) No Moon Set
Length of Visible Light 12h 13m
Length of Day
11h 19m
Waxing Crescent, 47% of the Moon is Illuminated
Oct 11
Waxing Crescent
Oct 11
First Quarter
Oct 18
Full
Oct 26
Last Quarter
Nov 3
New

Hourly Weather History & Observations

Time (EDT) Temp. Dew Point Humidity Pressure Visibility Wind Dir Wind Speed Gust Speed Precip Events Conditions
12:56 AM 53.1 °F 45.0 °F 74% 30.10 in 10.0 mi Calm Calm - N/A   Clear
1:56 AM 53.1 °F 45.0 °F 74% 30.09 in 10.0 mi ENE 5.8 mph - N/A   Clear
2:56 AM 54.0 °F 45.0 °F 72% 30.08 in 10.0 mi ENE 3.5 mph - N/A   Clear
3:56 AM 53.1 °F 45.0 °F 74% 30.07 in 10.0 mi Calm Calm - N/A   Clear
4:56 AM 51.1 °F 45.0 °F 80% 30.08 in 10.0 mi Calm Calm - N/A   Clear
5:56 AM 48.9 °F 45.0 °F 86% 30.09 in 10.0 mi Calm Calm - N/A   Clear
6:56 AM 48.9 °F 45.0 °F 86% 30.10 in 10.0 mi North 3.5 mph - N/A   Clear
7:56 AM 46.9 °F 44.1 °F 90% 30.12 in 10.0 mi NNE 3.5 mph - N/A   Clear
8:56 AM 55.0 °F 46.9 °F 74% 30.12 in 10.0 mi Calm Calm - N/A   Clear
9:56 AM 62.1 °F 46.9 °F 58% 30.13 in 10.0 mi Calm Calm - N/A   Clear
10:56 AM 68.0 °F 50.0 °F 52% 30.13 in 10.0 mi Calm Calm - N/A   Clear
11:56 AM 72.0 °F 44.1 °F 37% 30.11 in 10.0 mi Calm Calm - N/A   Clear
12:56 PM 73.0 °F 42.1 °F 33% 30.11 in 10.0 mi ESE 3.5 mph - N/A   Clear
1:56 PM 75.9 °F 48.0 °F 37% 30.07 in 10.0 mi Calm Calm - N/A   Clear
2:56 PM 77.0 °F 50.0 °F 39% 30.06 in 10.0 mi Calm Calm - N/A   Clear
3:56 PM 79.0 °F 48.0 °F 34% 30.05 in 10.0 mi North 4.6 mph - N/A   Clear
4:56 PM 80.1 °F 46.9 °F 31% 30.04 in 10.0 mi Calm Calm - N/A   Clear
5:56 PM 80.1 °F 50.0 °F 35% 30.04 in 10.0 mi Calm Calm - N/A   Clear
6:56 PM 72.0 °F 50.0 °F 46% 30.05 in 10.0 mi ESE 4.6 mph - N/A   Clear
7:56 PM 68.0 °F 51.1 °F 55% 30.06 in 10.0 mi Calm Calm - N/A   Clear
8:56 PM 64.0 °F 48.0 °F 56% 30.06 in 10.0 mi East 3.5 mph - N/A   Clear
9:56 PM 64.0 °F 48.0 °F 56% 30.06 in 10.0 mi Calm Calm - N/A   Clear
10:56 PM 62.1 °F 46.0 °F 56% 30.06 in 10.0 mi ENE 3.5 mph - N/A   Clear
11:56 PM 59.0 °F 46.0 °F 62% 30.06 in 10.0 mi East 6.9 mph - N/A   Clear